Flag Weather past 2 weeks in Szeged, Hungary

Now
55 °F

Passing clouds.


Feels Like: 55 °F
Forecast: 34 / 51 °F
Wind: 1 mph from North

Location: Szeged

Current Time: Oct 31, 2014 at 3:34:05 PM

Latest Report: Oct 31, 2014 at 2:00 PM


Visibility: 5 mi

Pressure: 30.32 "Hg

Humidity: 61%

Dew point: 42 °F

Location of SzegedLocation

Historic Weather in Szeged — Graph

°F

Szeged temperature yesterday

Maximum temperature yesterday: 50 °F (at 2:00 PM)
Minimum temperature yesterday: 44 °F (at 4:00 AM)
Average temperature yesterday: 46 °F

Past Weeks' High & Low Weather Summary

 TemperatureHumidityPressure
High77 °F (Oct 20, 4:00 PM)97% (Oct 16, 11:00 PM)30.50 "Hg (Oct 16, 11:00 PM)
Low28 °F (Oct 28, 7:00 AM)45% (Oct 20, 4:00 PM)29.50 "Hg (Oct 22, 6:00 AM)
Average49 °F86%30.12 "Hg
* Reported Oct 16 3:00 PM — Oct 31 2:00 PM, Szeged, Weather by CustomWeather, © 2014

Note: Actual official high and low records may vary slightly from our data, if they occured in-between our weather recording intervals... More about our weather records

Advertising

Szeged weather history for previous 24 hours

 ConditionsComfort  
Time TempWeatherWind HumidityBarometerVisibility
2:00 PM
Oct 31
55 °FPassing clouds.1 mph61%30.32 "Hg5 mi
1:00 PM54 °FPassing clouds.1 mph61%30.34 "Hg4 mi
12:00 PM53 °FPassing clouds.1 mph66%30.34 "Hg4 mi
11:00 AM51 °FSunny.2 mph71%30.36 "Hg4 mi
10:00 AM48 °FFog.1 mph77%30.36 "Hg2 mi
9:00 AM45 °FFog.2 mph87%30.36 "Hg2 mi
8:00 AM42 °FFog.1 mph96%30.35 "Hg2 mi
7:00 AM38 °FFog.1 mph95%30.34 "Hg2 mi
6:00 AM40 °FFog.1 mph93%30.34 "Hg3 mi
5:00 AM42 °FOvercast.No wind90%30.33 "Hg4 mi
4:00 AM45 °FOvercast.1 mph86%30.33 "Hg4 mi
3:00 AM45 °FOvercast.1 mph86%30.33 "Hg4 mi
2:00 AM44 °FOvercast.No wind86%30.33 "Hg4 mi
1:00 AM44 °FOvercast.1 mph86%30.33 "Hg4 mi
12:00 AM44 °FOvercast.No wind86%30.34 "Hg4 mi
11:00 PM
Oct 30
46 °FOvercast.1 mph85%30.34 "Hg4 mi
10:00 PM46 °FOvercast.1 mph86%30.33 "Hg4 mi
9:00 PM46 °FOvercast.1 mph85%30.33 "Hg5 mi
8:00 PM46 °FOvercast.2 mph83%30.33 "Hg5 mi
7:00 PM46 °FOvercast.1 mph85%30.32 "Hg5 mi
6:00 PM47 °FOvercast.2 mph82%30.31 "Hg5 mi
5:00 PM48 °FOvercast.1 mph77%30.30 "Hg5 mi
4:00 PM49 °FOvercast.2 mph70%30.29 "Hg5 mi
3:00 PM50 °FOvercast.2 mph69%30.29 "Hg6 mi
Weather by CustomWeather, © 2014

See weather overviewHow to use our weather pages